Dauntless Aviation
Airports South America Uruguay

Hospital Policial

Montevideo, URUGUAY

Airport Info
Suggest Updated Information for this Airport

Location

Latitude / Longitude: 34°52'4"S / 56°9'6"W
  34°52.068'S / 56°9.114'W
  -34.8678 / -56.1519
Satellite photo at:
Airport distance calculator
From:
Weather Reports

METAR

SUMU
8.1nm NE
SUMU 250800Z 02006KT CAVOK 09/08 Q1024 NOSIG

TAF

SUAA
7.8nm NW
TAF SUAA 250210Z 2506/2606 02010KT CAVOK TX20/2518Z TN07/2510Z PROB30 TEMPO 2504/2510 3000 BR NSC
SUMU
8.1nm NE
TAF SUMU 250210Z 2506/2606 02010KT CAVOK TX20/2518Z TN07/2510Z PROB30 TEMPO 2504/2510 3000 BR NSC
Safelog

 

Dauntless Aviation

© 2007-2016 Dauntless Aviation, all rights reserved
Information provided via PilotNav comes from a variety of official and unofficial data sources. As errors are possible, do not use PilotNav for primary flight planning purposes. Verify any information that you receive via PilotNav with current and canonical charts and other official documents. The material in this database is subject to database copyrights held by Dauntless Aviation and may not be copied without the express permission of Dauntless Aviation - licenses for use of part of all of this data are available for purchase; enquire via the Dauntless Aviation helpdesk. A number of mechanisms and markers exist in the database to protect against and identify infringement / copyright. Automated queries against this website are stictly prohibited, and all activity is logged and analyzed.